Regional Weather Roundup
Issued by NWS

Home | Current Version | Previous Version | Graphics & Text | Print | Product List | Glossary On
Versions: 1 2 3 4 5 6 7 8 9 10 11 12 13 14 15 16 17 18 19 20 21 22 23 24 25 26 27 28 29 30 31 32 33 34 35 36 37 38 39 40 41 42 43 44 45 46 47 48 49 50
000
ASUS43 KDTX 251101
RWRMI
MICHIGAN HOURLY REGIONAL WEATHER ROUNDUP
NATIONAL WEATHER SERVICE DETROIT/PONTIAC MI
700 AM EDT THU MAY 25 2017

NOTE: "FAIR" INDICATES FEW OR NO CLOUDS BELOW 12,000 FEET WITH NO
SIGNIFICANT WEATHER AND/OR OBSTRUCTION TO VISIBILITY.

MIZ047>049-052>055-059>063-066>070-074>076-081>083-251200-
SOUTHEAST LOWER MICHIGAN

CITY           SKY/WX    TMP DP  RH WIND       PRES   REMARKS
ADRIAN         CLOUDY    57  57 100 E8        29.45R
ALMA           DRIZZLE   55  55  99 N8        29.53S
ANN ARBOR      LGT RAIN  58  58 100 N8        29.45R FOG
BAD AXE        LGT RAIN  52  51  97 NE5       29.54R
CARO           CLOUDY    55  55  97 NE5       29.52R FOG
DETROIT CITY   LGT RAIN  57  57 100 E9        29.47R FOG
DETROIT        LGT RAIN  59  58  96 NE6       29.46R FOG
FLINT          FOG       56  55  97 NE9       29.49S VSB 1
GROSSE ILE     CLOUDY    57  56  94 E7        29.44S
HILLSDALE      CLOUDY    57  55  94 NE5       29.45R FOG
HOWELL         CLOUDY    56  54  92 N3        29.48R FOG

CITY           SKY/WX    TMP DP  RH WIND       PRES   REMARKS
JACKSON        LGT RAIN  57  56  96 N8        29.47R FOG
LAMBERTVILLE   CLOUDY    58  56  96 NE6       29.42F
LANSING        CLOUDY    58  53  84 N10       29.50R HAZE
LAPEER         CLOUDY    56  55  97 NE7       29.50S FOG
MASON          CLOUDY    56  56  99 NE9       29.49R FOG
MONROE         CLOUDY    58  57  96 E3        29.43S FOG
MT. CLEMENS    LGT RAIN  57  57 100 NE7       29.47R
PONTIAC        CLOUDY    57  55  93 NE9       29.47R
PORT HOPE        N/A     51  50  96 NE17      29.53F
PORT HURON     CLOUDY    57  55  94 NE6       29.49R
TRI CITIES     CLOUDY    54  53  97 NE14      29.54R
MIDLAND        CLOUDY    54  52  92 NE5       29.54S
TROY           DRIZZLE   58  56  92 NE6       29.49R
SAGINAW HB     CLOUDY    55  52  88 NE8       29.52R
$$
MIZ043>046-050>051-056>058-064>065-071>073-077>080-251200-
SOUTHWEST LOWER MICHIGAN

CITY           SKY/WX    TMP DP  RH WIND       PRES   REMARKS
BATTLE CREEK   CLOUDY    56  56 100 NE9       29.49R FOG
BENTON HARBOR  CLOUDY    57  54  89 CALM      29.51R
BIG RAPIDS     CLOUDY    54  51  89 NE5       29.56R
COLDWATER      CLOUDY    57  57 100 N9        29.46R FOG
FREMONT        RAIN      55  54  94 N6        29.55R
HOLLAND        CLOUDY    58  54  86 N6        29.53R
GRAND RAPIDS   CLOUDY    56  56 100 NE10      29.52R
IONIA          CLOUDY    55  55  98 N9        29.51R FOG
KALAMAZOO      CLOUDY    57  53  86 NE7       29.49R FOG
LUDINGTON      CLOUDY    51  51  99 N7        29.58S
MARSHALL       CLOUDY    56  56  98 N3        29.48R FOG
MOUNT PLEASANT CLOUDY    54  53  97 N8        29.55R FOG
MUSKEGON       CLOUDY    58  54  86 N7        29.55R
$$
MIZ016>042-251200-
NORTHERN LOWER MICHIGAN

CITY           SKY/WX    TMP DP  RH WIND       PRES   REMARKS
ALPENA         LGT RAIN  54  54 100 NE12      29.63S
BEAVER ISLAND  DRIZZLE   54  51  89 NE7       29.67F
BELLAIRE       CLOUDY    54  50  87 N3        29.63R
CADILLAC       CLOUDY    53  51  94 NE7       29.59R
CHARLEVOIX     CLOUDY    55  51  85 E7        29.67S
FRANKFORT      CLOUDY    53  48  84 NE5       29.62R
GRAYLING       CLOUDY    52  51  97 NE8         N/A
HARBOR SPRINGS CLOUDY    55  52  89 NE10      29.65S
HOUGHTON LAKE  CLOUDY    53  51  93 NE10      29.59S
MANISTEE       CLOUDY    55  51  86 NE7       29.60R
OSCODA         CLOUDY    52  50  92 NE17G23   29.57F
PELLSTON       PTCLDY    55  49  80 NE7       29.66S
ROGERS CITY    LGT RAIN  48  47  95 N3        29.66S
TRAVERSE CITY  LGT RAIN  51  49  92 CALM      29.61R
$$
MIZ007>008-015-251200-
EASTERN UPPER MICHIGAN

CITY           SKY/WX    TMP DP  RH WIND       PRES   REMARKS
KINROSS        CLOUDY    54  51  90 NE9       29.69S
MACKINAC ISLAN CLOUDY    53  53 100 NE9       29.67S
NEWBERRY       CLOUDY    49  48  97 N6        29.70S
S. S. MARIE    CLOUDY    55  51  86 NE5       29.69F
MUNISING         N/A     43  39  86 NW7       29.72F
$$
MIZ004>006-011>014-085-251200-
CENTRAL UPPER MICHIGAN

CITY           SKY/WX    TMP DP  RH WIND       PRES   REMARKS
MANISTIQUE     CLOUDY    50  47  89 N6        29.68F
ESCANABA       CLOUDY    50  46  86 N6        29.69S
MENOMINEE      MOCLDY    49  46  90 N7        29.68S
SAWYER-GWINN   MOCLDY    43  41  93 N6        29.73S
$$
MIZ001>003-009>011-084-251200-
WESTERN UPPER MICHIGAN

CITY           SKY/WX    TMP DP  RH WIND       PRES   REMARKS
IRON MOUNTAIN  MOCLDY    45  43  93 CALM      29.71S
HOUGHTON       CLOUDY    48  43  82 NE3       29.75S
COPPER HARBOR    N/A     41  38  89 CALM      29.76S
IRONWOOD       CLOUDY    45  44  97 E3        29.76S
$$

ABBREVIATIONS USED IN REMARKS
   TC - TEMPERATURE IN CELSIUS
  WCI - WIND CHILL INDEX
   HX - HEAT INDEX
  VSB - VISIBILITY





USA.gov is the U.S. government's official web portal to all federal, state and local government web resources and services.